Total_Precipitation_Accumulation
0.07 0.07 0.07 0.09 0.07 0.04 0.01 0.00 0.00 0.00 0.00 0.00 0.00 0.00 0.00 0.00 0.00 0.02 0.02 0.02 0.03 0.04 0.08 0.18 0.29 0.35 0.41 0.47 0.44 0.37 0.32 0.30 0.33 0.32 0.33 0.32 0.33 0.36 0.39 0.46 0.50 0.55 0.62 0.62 0.61 0.75 0.79 0.80 0.74
0.07 0.09 0.11 0.11 0.06 0.02 0.00 0.00 0.00 0.00 0.00 0.00 0.00 0.00 0.00 0.00 0.00 0.01 0.03 0.03 0.02 0.03 0.06 0.11 0.25 0.34 0.39 0.43 0.40 0.36 0.32 0.29 0.30 0.30 0.32 0.34 0.36 0.37 0.40 0.47 0.53 0.59 0.69 0.71 0.74 0.80 0.77 0.75 0.68
0.12 0.13 0.14 0.11 0.05 0.01 0.00 0.00 0.00 0.00 0.00 0.00 0.00 0.01 0.01 0.01 0.01 0.01 0.02 0.02 0.03 0.04 0.07 0.13 0.25 0.34 0.38 0.40 0.39 0.37 0.33 0.30 0.30 0.31 0.31 0.35 0.38 0.38 0.39 0.42 0.51 0.58 0.68 0.68 0.68 0.74 0.70 0.67 0.65
0.19 0.22 0.16 0.10 0.03 0.00 0.00 0.00 0.00 0.00 0.00 0.00 0.00 0.01 0.02 0.01 0.00 0.01 0.02 0.02 0.03 0.06 0.09 0.16 0.26 0.36 0.39 0.40 0.44 0.44 0.38 0.34 0.33 0.34 0.35 0.37 0.40 0.40 0.41 0.40 0.40 0.45 0.51 0.55 0.59 0.65 0.64 0.59 0.55
0.23 0.23 0.16 0.08 0.02 0.01 0.00 0.00 0.00 0.00 0.00 0.00 0.00 0.01 0.02 0.01 0.01 0.01 0.02 0.03 0.05 0.08 0.11 0.17 0.29 0.40 0.42 0.42 0.46 0.47 0.41 0.38 0.38 0.39 0.42 0.42 0.41 0.42 0.42 0.35 0.34 0.35 0.37 0.41 0.51 0.61 0.63 0.60 0.52
0.27 0.23 0.14 0.06 0.02 0.01 0.01 0.01 0.01 0.00 0.00 0.00 0.00 0.01 0.03 0.03 0.02 0.02 0.03 0.04 0.06 0.09 0.13 0.20 0.35 0.45 0.46 0.45 0.46 0.52 0.48 0.44 0.41 0.42 0.45 0.48 0.48 0.48 0.45 0.39 0.34 0.32 0.31 0.35 0.41 0.52 0.67 0.64 0.51
0.27 0.20 0.09 0.05 0.03 0.02 0.01 0.01 0.02 0.02 0.01 0.00 0.00 0.01 0.03 0.04 0.04 0.03 0.04 0.05 0.08 0.12 0.17 0.23 0.35 0.44 0.49 0.49 0.50 0.53 0.52 0.52 0.49 0.48 0.48 0.47 0.48 0.49 0.50 0.47 0.43 0.40 0.38 0.38 0.38 0.45 0.62 0.63 0.54
0.28 0.26 0.11 0.04 0.03 0.02 0.01 0.01 0.02 0.02 0.02 0.01 0.01 0.02 0.02 0.04 0.04 0.06 0.08 0.10 0.13 0.16 0.21 0.29 0.36 0.45 0.50 0.49 0.49 0.53 0.52 0.55 0.52 0.50 0.44 0.39 0.41 0.47 0.46 0.43 0.41 0.41 0.44 0.43 0.38 0.38 0.48 0.54 0.52
0.38 0.36 0.16 0.05 0.03 0.02 0.01 0.01 0.02 0.02 0.02 0.02 0.01 0.02 0.02 0.03 0.06 0.10 0.13 0.17 0.19 0.22 0.28 0.36 0.43 0.47 0.49 0.50 0.47 0.53 0.55 0.54 0.52 0.46 0.40 0.38 0.39 0.41 0.39 0.33 0.32 0.39 0.45 0.44 0.42 0.40 0.43 0.46 0.43
0.50 0.35 0.14 0.05 0.03 0.02 0.02 0.02 0.02 0.03 0.03 0.03 0.02 0.02 0.03 0.05 0.08 0.11 0.13 0.16 0.20 0.25 0.34 0.40 0.50 0.52 0.50 0.47 0.51 0.56 0.52 0.49 0.44 0.36 0.36 0.40 0.43 0.45 0.41 0.35 0.32 0.39 0.43 0.46 0.48 0.49 0.46 0.42 0.37
0.46 0.29 0.12 0.06 0.05 0.05 0.04 0.04 0.05 0.05 0.05 0.03 0.03 0.03 0.04 0.07 0.09 0.10 0.12 0.14 0.18 0.24 0.39 0.49 0.55 0.61 0.58 0.52 0.51 0.55 0.56 0.53 0.49 0.43 0.40 0.46 0.51 0.51 0.48 0.45 0.44 0.42 0.40 0.43 0.45 0.49 0.44 0.45 0.55
0.41 0.24 0.11 0.08 0.08 0.10 0.09 0.06 0.06 0.08 0.05 0.03 0.02 0.03 0.05 0.06 0.07 0.09 0.12 0.15 0.20 0.26 0.36 0.50 0.55 0.62 0.66 0.63 0.58 0.51 0.49 0.49 0.49 0.51 0.49 0.50 0.49 0.46 0.43 0.39 0.38 0.41 0.41 0.42 0.42 0.43 0.45 0.45 0.50
0.36 0.27 0.16 0.11 0.11 0.12 0.12 0.10 0.08 0.07 0.04 0.04 0.04 0.04 0.06 0.06 0.08 0.09 0.13 0.15 0.20 0.25 0.32 0.45 0.51 0.56 0.63 0.68 0.65 0.57 0.51 0.48 0.46 0.49 0.52 0.49 0.47 0.44 0.41 0.37 0.37 0.35 0.35 0.37 0.37 0.35 0.35 0.41 0.44
0.33 0.27 0.22 0.17 0.15 0.15 0.15 0.13 0.10 0.07 0.06 0.07 0.08 0.07 0.08 0.08 0.09 0.11 0.13 0.14 0.18 0.24 0.30 0.38 0.46 0.50 0.58 0.59 0.61 0.60 0.58 0.57 0.54 0.50 0.52 0.54 0.47 0.43 0.40 0.36 0.33 0.32 0.33 0.32 0.33 0.34 0.35 0.35 0.38
0.32 0.32 0.28 0.22 0.19 0.19 0.21 0.18 0.11 0.07 0.09 0.09 0.10 0.09 0.10 0.11 0.12 0.13 0.14 0.13 0.17 0.24 0.32 0.38 0.43 0.46 0.51 0.54 0.57 0.59 0.58 0.59 0.56 0.49 0.49 0.55 0.55 0.47 0.43 0.40 0.35 0.30 0.31 0.37 0.44 0.45 0.45 0.44 0.44
0.44 0.47 0.40 0.24 0.19 0.22 0.31 0.23 0.10 0.09 0.10 0.08 0.08 0.10 0.12 0.12 0.12 0.15 0.18 0.18 0.19 0.23 0.31 0.38 0.43 0.48 0.51 0.56 0.61 0.64 0.62 0.62 0.55 0.50 0.51 0.53 0.57 0.59 0.56 0.52 0.44 0.35 0.33 0.38 0.46 0.54 0.56 0.51 0.49
0.64 0.52 0.37 0.24 0.19 0.22 0.31 0.23 0.09 0.10 0.11 0.08 0.08 0.09 0.10 0.12 0.13 0.14 0.16 0.17 0.20 0.23 0.29 0.38 0.43 0.45 0.52 0.63 0.70 0.68 0.72 0.71 0.64 0.58 0.56 0.55 0.56 0.58 0.61 0.63 0.60 0.49 0.42 0.41 0.43 0.44 0.48 0.52 0.57
0.53 0.38 0.28 0.24 0.20 0.22 0.26 0.17 0.09 0.10 0.11 0.08 0.07 0.09 0.10 0.11 0.12 0.14 0.15 0.17 0.22 0.27 0.30 0.37 0.48 0.56 0.62 0.72 0.82 0.80 0.75 0.76 0.75 0.67 0.57 0.56 0.60 0.58 0.58 0.62 0.63 0.60 0.54 0.49 0.48 0.48 0.46 0.46 0.52
0.39 0.35 0.28 0.21 0.20 0.28 0.25 0.15 0.10 0.10 0.12 0.10 0.07 0.08 0.09 0.10 0.11 0.16 0.17 0.19 0.21 0.27 0.31 0.36 0.45 0.61 0.69 0.72 0.78 0.79 0.67 0.70 0.76 0.70 0.57 0.55 0.55 0.56 0.56 0.56 0.57 0.57 0.53 0.49 0.50 0.50 0.47 0.43 0.44
0.48 0.44 0.32 0.23 0.19 0.31 0.31 0.20 0.12 0.10 0.10 0.09 0.07 0.06 0.07 0.08 0.11 0.17 0.21 0.22 0.20 0.24 0.28 0.32 0.38 0.51 0.61 0.62 0.70 0.81 0.76 0.71 0.80 0.78 0.66 0.59 0.54 0.52 0.52 0.51 0.52 0.55 0.54 0.47 0.44 0.47 0.48 0.43 0.41
0.57 0.46 0.33 0.31 0.28 0.34 0.35 0.28 0.16 0.10 0.08 0.08 0.07 0.06 0.06 0.06 0.09 0.15 0.20 0.22 0.23 0.23 0.25 0.28 0.33 0.42 0.55 0.67 0.76 0.86 1.01 0.90 0.86 0.86 0.77 0.68 0.58 0.54 0.53 0.51 0.51 0.51 0.54 0.50 0.42 0.41 0.47 0.48 0.45
0.53 0.34 0.31 0.38 0.54 0.55 0.44 0.44 0.20 0.12 0.09 0.08 0.06 0.05 0.06 0.06 0.08 0.12 0.18 0.21 0.23 0.24 0.26 0.29 0.35 0.39 0.47 0.63 0.74 0.75 0.82 0.84 0.69 0.67 0.73 0.72 0.65 0.56 0.52 0.50 0.51 0.51 0.52 0.50 0.50 0.47 0.46 0.50 0.50
0.41 0.30 0.38 0.46 0.64 0.64 0.44 0.47 0.25 0.13 0.12 0.09 0.06 0.05 0.06 0.06 0.06 0.08 0.13 0.18 0.23 0.26 0.28 0.30 0.38 0.42 0.44 0.53 0.65 0.72 0.75 0.78 0.79 0.71 0.69 0.74 0.72 0.61 0.56 0.52 0.51 0.52 0.51 0.49 0.50 0.51 0.53 0.53 0.53
0.48 0.56 0.68 0.73 0.96 0.96 0.37 0.32 0.26 0.19 0.15 0.11 0.08 0.06 0.06 0.06 0.08 0.09 0.12 0.18 0.24 0.29 0.32 0.34 0.37 0.40 0.43 0.50 0.61 0.67 0.70 0.76 0.84 0.81 0.71 0.70 0.75 0.74 0.65 0.57 0.55 0.54 0.51 0.47 0.47 0.49 0.51 0.53 0.54
0.83 1.21 1.70 1.77 1.56 0.82 0.20 0.21 0.25 0.20 0.16 0.15 0.14 0.10 0.07 0.09 0.10 0.10 0.11 0.17 0.23 0.28 0.30 0.34 0.37 0.42 0.44 0.48 0.53 0.57 0.65 0.70 0.75 0.80 0.76 0.72 0.72 0.75 0.76 0.67 0.60 0.57 0.57 0.54 0.52 0.53 0.53 0.54 0.56
0.81 1.01 1.29 1.28 0.85 0.38 0.18 0.19 0.19 0.16 0.12 0.09 0.11 0.11 0.10 0.10 0.12 0.12 0.10 0.11 0.17 0.24 0.27 0.32 0.34 0.38 0.44 0.48 0.50 0.54 0.60 0.69 0.69 0.71 0.75 0.74 0.68 0.69 0.79 0.80 0.75 0.67 0.65 0.67 0.68 0.68 0.66 0.65 0.65
0.79 0.77 0.64 0.83 0.63 0.46 0.29 0.18 0.13 0.09 0.08 0.07 0.08 0.10 0.12 0.12 0.12 0.12 0.11 0.12 0.15 0.19 0.23 0.30 0.34 0.37 0.38 0.44 0.53 0.56 0.58 0.64 0.66 0.64 0.67 0.71 0.68 0.64 0.70 0.80 0.84 0.87 0.84 0.80 0.83 0.85 0.81 0.80 0.78
0.63 0.75 0.85 1.17 1.06 0.64 0.31 0.18 0.20 0.15 0.11 0.09 0.09 0.12 0.15 0.14 0.13 0.13 0.12 0.13 0.15 0.18 0.19 0.27 0.36 0.40 0.43 0.41 0.48 0.56 0.59 0.63 0.67 0.66 0.63 0.66 0.69 0.68 0.66 0.71 0.77 0.84 0.89 0.89 0.88 0.87 0.88 0.91 0.91
0.57 0.82 1.10 1.15 0.92 0.69 0.41 0.26 0.27 0.23 0.16 0.14 0.14 0.15 0.18 0.21 0.21 0.19 0.15 0.13 0.14 0.20 0.22 0.23 0.34 0.43 0.49 0.48 0.47 0.52 0.59 0.63 0.69 0.75 0.74 0.71 0.73 0.75 0.73 0.71 0.69 0.69 0.76 0.88 0.95 0.94 0.95 0.97 0.95
0.50 0.62 0.85 1.13 0.89 0.58 0.48 0.30 0.23 0.22 0.19 0.16 0.16 0.17 0.18 0.21 0.23 0.21 0.16 0.16 0.19 0.24 0.25 0.27 0.35 0.41 0.51 0.56 0.56 0.55 0.60 0.64 0.68 0.74 0.80 0.80 0.80 0.82 0.83 0.81 0.77 0.68 0.67 0.76 0.85 0.90 0.92 0.97 0.96